Cody, WY

6:22 AM MDT on August 26, 2016 (GMT -0600)
Yellowstone Regional

Weather History for KCOD - February, 2012

Change the Weather History Date:

Sunday, February 12, 2012

  Actual Average Record
Temperature  
Mean Temperature 20 °F -  
Max Temperature 33 °F 41 °F 75 °F (1921)
Min Temperature 6 °F 20 °F -21 °F (1936)
Degree Days  
Heating Degree Days 46    
Moisture  
Dew Point 18 °F    
Average Humidity 88    
Maximum Humidity 100    
Minimum Humidity 69    
Precipitation  
Precipitation 0.01 in - - ()
Sea Level Pressure  
Sea Level Pressure 29.80 in    
Wind  
Wind Speed 3 mph (ESE)    
Max Wind Speed 8 mph    
Max Gust Speed -    
Visibility 9 miles    
Events      
Averages and records for this station are not official NWS values.
T = Trace of Precipitation, MM = Missing Value Source: NWS Daily Summary

Daily Weather History Graph

Daily Weather History Graph

Search for Another Location

Airport or City:

Trip Planner

Search our weather history database for the weather conditions in past years. The results will help you decide how hot, cold, wet, or windy it might be!

Date:

Astronomy

Feb. 12, 2012 Rise Set
Actual Time 7:21 AM MST 5:40 PM MST
Civil Twilight 6:50 AM MST 6:10 PM MST
Nautical Twilight 6:16 AM MST 6:44 PM MST
Astronomical Twilight 5:43 AM MST 7:18 PM MST
Moon No Moon Rise 9:25 AM MST (2/12)
Length of Visible Light 11h 19m
Length of Day
10h 19m
Waning Gibbous, 71% of the Moon is Illuminated
Feb 12
Waning Gibbous
Feb 14
Last Quarter
Feb 21
New
Feb 29
First Quarter
Mar 8
Full

Hourly Weather History & Observations

Time (MST) Temp. Windchill Dew Point Humidity Pressure Visibility Wind Dir Wind Speed Gust Speed Precip Events Conditions
12:15 AM 14.0 °F 2.9 °F 12.2 °F 93% 29.95 in 1.2 mi South 8.1 mph - N/A   Overcast
12:35 AM 12.2 °F 1.7 °F 12.2 °F 100% 29.95 in 1.5 mi South 6.9 mph - N/A   Overcast
12:55 AM 12.2 °F 2.9 °F 12.2 °F 100% 29.94 in 1.8 mi SSE 5.8 mph - N/A   Overcast
1:15 AM 12.2 °F 4.3 °F 10.4 °F 92% 29.93 in 3.0 mi SSE 4.6 mph - N/A   Overcast
2:15 AM 6.8 °F -4.8 °F 6.8 °F 100% 29.91 in 10.0 mi SSE 6.9 mph - N/A   Clear
2:35 AM 8.6 °F 0.1 °F 6.8 °F 92% 29.91 in 10.0 mi SSE 4.6 mph - N/A   Clear
2:55 AM 8.6 °F 0.1 °F 8.6 °F 100% 29.90 in 10.0 mi SW 4.6 mph - N/A   Clear
3:15 AM 8.6 °F - 8.6 °F 100% 29.89 in 10.0 mi Calm Calm - N/A   Clear
3:35 AM 10.4 °F - 8.6 °F 92% 29.88 in 1.2 mi Calm Calm - N/A   Overcast
3:55 AM 8.6 °F - 6.8 °F 92% 29.88 in 0.5 mi Calm Calm - N/A   Overcast
4:15 AM 8.6 °F - 8.6 °F 100% 29.87 in 0.8 mi Calm Calm - N/A   Overcast
4:35 AM 10.4 °F - 8.6 °F 92% 29.86 in 6.0 mi Calm Calm - N/A   Partly Cloudy
4:55 AM 8.6 °F - 8.6 °F 100% 29.86 in 5.0 mi Calm Calm - N/A   Partly Cloudy
5:15 AM 8.6 °F - 6.8 °F 92% 29.85 in 10.0 mi Calm Calm - N/A   Scattered Clouds
5:35 AM 10.4 °F - 8.6 °F 92% 29.84 in 10.0 mi Calm Calm - N/A   Mostly Cloudy
5:55 AM 8.6 °F - 6.8 °F 92% 29.83 in 10.0 mi Calm Calm - N/A   Mostly Cloudy
6:15 AM 10.4 °F - 8.6 °F 92% 29.82 in 10.0 mi Calm Calm - N/A   Overcast
6:35 AM 12.2 °F - 10.4 °F 92% 29.82 in 10.0 mi Calm Calm - N/A   Overcast
6:55 AM 12.2 °F - 12.2 °F 100% 29.82 in 10.0 mi Calm Calm - N/A   Overcast
7:15 AM 12.2 °F - 12.2 °F 100% 29.82 in 10.0 mi Calm Calm - N/A   Overcast
7:35 AM 14.0 °F - 14.0 °F 100% 29.82 in 10.0 mi Calm Calm - N/A   Overcast
7:55 AM 15.8 °F - 15.8 °F 100% 29.82 in 10.0 mi Calm Calm - N/A   Overcast
8:15 AM 15.8 °F - 14.0 °F 93% 29.82 in 10.0 mi Calm Calm - N/A   Overcast
8:55 AM 17.6 °F 12.3 °F 17.6 °F 100% 29.82 in 10.0 mi SE 3.5 mph - N/A   Overcast
9:15 AM 19.4 °F - 17.6 °F 93% 29.82 in 10.0 mi Calm Calm - N/A   Overcast
9:35 AM 19.4 °F - 17.6 °F 93% 29.82 in 10.0 mi Calm Calm - N/A   Overcast
9:55 AM 21.2 °F - 19.4 °F 93% 29.81 in 10.0 mi Calm Calm - N/A   Overcast
10:15 AM 21.2 °F - 19.4 °F 93% 29.81 in 10.0 mi Calm Calm - N/A   Overcast
10:35 AM 24.8 °F - 21.2 °F 86% 29.80 in 10.0 mi Calm Calm - N/A   Overcast
10:55 AM 24.8 °F - 19.4 °F 80% 29.80 in 10.0 mi Calm Calm - N/A   Overcast
11:15 AM 24.8 °F - 19.4 °F 80% 29.79 in 10.0 mi Calm Calm - N/A   Overcast
11:35 AM 26.6 °F - 21.2 °F 80% 29.79 in 10.0 mi Calm Calm - N/A   Overcast
11:55 AM 28.4 °F - 21.2 °F 74% 29.78 in 10.0 mi Calm Calm - 0.01 in   Overcast
12:15 PM 30.2 °F - 23.0 °F 75% 29.77 in 10.0 mi Calm Calm - N/A   Overcast
12:35 PM 28.4 °F 24.6 °F 24.8 °F 86% 29.76 in 10.0 mi NNW 3.5 mph - N/A   Overcast
12:55 PM 28.4 °F - 23.0 °F 80% 29.75 in 10.0 mi Calm Calm - N/A   Overcast
1:15 PM 30.2 °F - 23.0 °F 75% 29.75 in 10.0 mi Calm Calm - N/A   Overcast
1:35 PM 33.8 °F - 24.8 °F 70% 29.74 in 10.0 mi Calm Calm - N/A   Overcast
2:15 PM 32.0 °F - 23.0 °F 69% 29.73 in 10.0 mi Calm Calm - N/A   Overcast
2:35 PM 32.0 °F - 24.8 °F 75% 29.73 in 10.0 mi Calm Calm - N/A   Overcast
2:55 PM 32.0 °F 28.7 °F 24.8 °F 75% 29.73 in 10.0 mi NNE 3.5 mph - N/A   Overcast
3:15 PM 30.2 °F 26.7 °F 24.8 °F 80% 29.72 in 10.0 mi North 3.5 mph - N/A   Mostly Cloudy
3:35 PM 32.0 °F 27.5 °F 24.8 °F 75% 29.72 in 10.0 mi North 4.6 mph - N/A   Partly Cloudy
3:55 PM 30.2 °F - 24.8 °F 80% 29.72 in 10.0 mi Calm Calm - N/A   Clear
4:15 PM 30.2 °F - 24.8 °F 80% 29.71 in 10.0 mi Calm Calm - N/A   Clear
4:35 PM 30.2 °F - 24.8 °F 80% 29.71 in 10.0 mi Calm Calm - N/A   Mostly Cloudy
4:55 PM 30.2 °F - 23.0 °F 75% 29.71 in 10.0 mi Calm Calm - N/A   Overcast
5:15 PM 28.4 °F - 24.8 °F 86% 29.71 in 10.0 mi Calm Calm - N/A   Overcast
5:35 PM 28.4 °F 24.6 °F 24.8 °F 86% 29.71 in 10.0 mi North 3.5 mph - N/A   Mostly Cloudy
5:55 PM 26.6 °F 21.2 °F 23.0 °F 86% 29.71 in 10.0 mi North 4.6 mph - N/A   Mostly Cloudy
6:15 PM 24.8 °F - 23.0 °F 93% 29.72 in 10.0 mi Calm Calm - N/A   Mostly Cloudy
6:35 PM 24.8 °F - 21.2 °F 86% 29.72 in 10.0 mi Calm Calm - N/A   Scattered Clouds
6:55 PM 24.8 °F - 19.4 °F 80% 29.72 in 8.0 mi Calm Calm - N/A   Mostly Cloudy
7:15 PM 24.8 °F - 23.0 °F 93% 29.72 in 10.0 mi Calm Calm - N/A   Overcast
7:35 PM 26.6 °F 22.6 °F 23.0 °F 86% 29.71 in 10.0 mi South 3.5 mph - N/A   Overcast
7:55 PM 26.6 °F 21.2 °F 23.0 °F 86% 29.72 in 10.0 mi NE 4.6 mph - N/A   Overcast
8:15 PM 28.4 °F - 24.8 °F 86% 29.71 in 10.0 mi Calm Calm - N/A   Overcast
8:35 PM 28.4 °F - 24.8 °F 86% 29.71 in 10.0 mi Calm Calm - N/A   Overcast
8:55 PM 30.2 °F 25.4 °F 26.6 °F 86% 29.71 in 10.0 mi ESE 4.6 mph - N/A   Overcast
9:15 PM 28.4 °F - 24.8 °F 86% 29.71 in 10.0 mi Calm Calm - N/A   Overcast
9:35 PM 28.4 °F - 24.8 °F 86% 29.71 in 10.0 mi Calm Calm - N/A   Overcast
9:55 PM 30.2 °F - 24.8 °F 80% 29.71 in 10.0 mi Calm Calm - N/A   Overcast
10:15 PM 28.4 °F - 24.8 °F 86% 29.71 in 10.0 mi Calm Calm - N/A   Overcast
10:55 PM 30.2 °F 21.3 °F 28.4 °F 93% 29.71 in 10.0 mi South 10.4 mph - N/A   Overcast
11:15 PM 30.2 °F 22.6 °F 28.4 °F 93% 29.70 in 10.0 mi South 8.1 mph - N/A   Overcast
11:35 PM 30.2 °F 26.7 °F 26.6 °F 86% 29.70 in 10.0 mi SW 3.5 mph - N/A   Overcast
11:55 PM 30.2 °F 26.7 °F 26.6 °F 86% 29.70 in 10.0 mi SSW 3.5 mph - N/A   Overcast